一网星座-0425星 (ONEWEB-0425 )

导读 | 豆包AI

ONEWEB-0425是英国OneWeb公司低轨卫星互联网星座的成员,于2022年2月10日发射,属于公司构建全球卫星互联网网络的规划部署。OneWeb计划由648颗低轨卫星组成星座,旨在为全球提供高速低延迟的宽带互联网服务,该卫星升空后助力公司推进星座组网,目前OneWeb已基本完成初始星座建设,成为全球第二大低轨卫星互联网运营商。

Basic Information
目录编号:
51628
目录名称:
ONEWEB-0425
国际标识:
2022-012G
轨道中心:
EARTH
卫星名称:
一网星座-0425星
卫星全名:
一网星座-0425星 (ONEWEB-0425 )
卫星状态:
在轨 (已飞行1493 天)
发射日期:
2022-02-10 UTC
国别 :
英国 (GB)
星等 :
--
Orbit Information
数据来源 国际轨道数据 AOE轨道数据
星历时间 2026-03-14T07:11:17+0800
7小时前
查看轨道信息
2026-03-13T16:00:00+0800
23小时前
查看轨道信息
半长轴 7599.861km 7599.85km
偏心率 0.0001565 0.0001642
轨道倾角 87.879° 87.879°
近地点辐角 79.220° 87.761°
升交点赤经 55.220° 55.346°
平近点角 280.911° 168.795°
近地点 1220.534km 1220.465km
远地点 1222.914km 1222.961km
周期 109.893分钟 109.892分钟
每日圈数 13.103712 13.10374
Detailed Information
平衡模式:
三轴稳定
覆盖范围:
全球
运营商:
一网卫星公司
运营商所在国:
英国
制造商(研发单位):
一网卫星公司
制造商所在国:
英国
使用方式:
暂无
Satellite Introduction
OneWeb卫星网络由648颗重约125公斤的微型卫星组成,运行在1200公里的轨道上。 每颗卫星都能够提供至少每秒8千兆位的吞吐量,以使用其高吞吐量的Ku频段有效载荷为家庭和移动平台提供互联网接入。该卫星仍在工作。
2D Orbit Map
3D Orbit Map
Orbit Altitude Analysis Chart
Orbit Inclination Analysis Chart
Orbit Comprehensive Analysis Chart
View Comprehensive Chart